TimeCDT,TemperatureF,Dew PointF,Humidity,Sea Level PressureIn,VisibilityMPH,Wind Direction,Wind SpeedMPH,Gust SpeedMPH,PrecipitationIn,Events,Conditions,WindDirDegrees,DateUTC
12:15 AM,33.8,30.2,87,30.26,10.0,WSW,3.5,-,N/A,,Clear,250,2012-10-11 05:15:00
12:35 AM,35.6,32.0,87,30.26,10.0,Calm,Calm,-,N/A,,Clear,0,2012-10-11 05:35:00
12:55 AM,33.8,30.2,87,30.26,10.0,Calm,Calm,-,N/A,,Clear,0,2012-10-11 05:55:00
1:15 AM,33.8,30.2,87,30.26,10.0,Calm,Calm,-,N/A,,Clear,0,2012-10-11 06:15:00
1:55 AM,32.0,30.2,93,30.26,10.0,Calm,Calm,-,N/A,,Clear,0,2012-10-11 06:55:00
2:15 AM,33.8,32.0,93,30.26,10.0,Calm,Calm,-,N/A,,Clear,0,2012-10-11 07:15:00
2:35 AM,32.0,30.2,93,30.25,10.0,Calm,Calm,-,N/A,,Clear,0,2012-10-11 07:35:00
2:55 AM,32.0,30.2,93,30.25,10.0,Calm,Calm,-,N/A,,Clear,0,2012-10-11 07:55:00
3:15 AM,32.0,28.4,87,30.25,10.0,Calm,Calm,-,N/A,,Clear,0,2012-10-11 08:15:00
3:35 AM,30.2,28.4,93,30.25,10.0,Calm,Calm,-,N/A,,Clear,0,2012-10-11 08:35:00
3:55 AM,30.2,30.2,100,30.26,10.0,Calm,Calm,-,N/A,,Clear,0,2012-10-11 08:55:00
4:15 AM,32.0,30.2,93,30.26,10.0,Calm,Calm,-,N/A,,Clear,0,2012-10-11 09:15:00
4:35 AM,32.0,28.4,87,30.26,10.0,Calm,Calm,-,N/A,,Clear,0,2012-10-11 09:35:00
4:55 AM,32.0,30.2,93,30.27,10.0,Calm,Calm,-,N/A,,Clear,0,2012-10-11 09:55:00
5:15 AM,32.0,28.4,87,30.27,10.0,Calm,Calm,-,N/A,,Clear,0,2012-10-11 10:15:00
5:35 AM,32.0,30.2,93,30.27,10.0,Calm,Calm,-,N/A,,Clear,0,2012-10-11 10:35:00
5:55 AM,32.0,30.2,93,30.27,10.0,Calm,Calm,-,N/A,,Clear,0,2012-10-11 10:55:00
6:15 AM,30.2,28.4,93,30.27,10.0,Calm,Calm,-,N/A,,Clear,0,2012-10-11 11:15:00
6:35 AM,32.0,28.4,87,30.27,10.0,Calm,Calm,-,N/A,,Clear,0,2012-10-11 11:35:00
6:55 AM,30.2,28.4,93,30.27,10.0,Calm,Calm,-,N/A,,Clear,0,2012-10-11 11:55:00
7:15 AM,32.0,28.4,87,30.28,10.0,Calm,Calm,-,N/A,,Clear,0,2012-10-11 12:15:00
7:35 AM,32.0,30.2,93,30.28,10.0,Calm,Calm,-,N/A,,Clear,0,2012-10-11 12:35:00
7:55 AM,33.8,32.0,93,30.28,10.0,Calm,Calm,-,N/A,,Clear,0,2012-10-11 12:55:00
8:15 AM,35.6,33.8,93,30.28,10.0,Calm,Calm,-,N/A,,Clear,0,2012-10-11 13:15:00
8:35 AM,41.0,35.6,81,30.28,10.0,Calm,Calm,-,N/A,,Clear,0,2012-10-11 13:35:00
8:55 AM,44.6,37.4,76,30.28,10.0,Calm,Calm,-,N/A,,Clear,0,2012-10-11 13:55:00
9:15 AM,48.2,37.4,66,30.29,10.0,South,8.1,-,N/A,,Clear,190,2012-10-11 14:15:00
9:35 AM,51.8,35.6,54,30.29,10.0,South,6.9,-,N/A,,Clear,180,2012-10-11 14:35:00
9:55 AM,51.8,35.6,54,30.29,10.0,South,10.4,-,N/A,,Clear,190,2012-10-11 14:55:00
10:15 AM,53.6,33.8,47,30.29,10.0,South,12.7,-,N/A,,Clear,180,2012-10-11 15:15:00
10:35 AM,55.4,35.6,47,30.29,10.0,South,9.2,-,N/A,,Clear,190,2012-10-11 15:35:00
10:55 AM,-9999,-9999,N/A,30.29,10.0,South,11.5,-,N/A,,Clear,180,2012-10-11 15:55:00
11:15 AM,-9999,-9999,N/A,30.28,10.0,SSW,10.4,16.1,N/A,,Clear,200,2012-10-11 16:15:00
11:35 AM,-9999,-9999,N/A,30.28,10.0,South,6.9,-,N/A,,Clear,180,2012-10-11 16:35:00
11:55 AM,59.0,35.6,42,30.27,10.0,SW,5.8,-,N/A,,Clear,230,2012-10-11 16:55:00
12:15 PM,60.8,37.4,42,30.27,10.0,SSW,6.9,-,N/A,,Mostly Cloudy,210,2012-10-11 17:15:00
12:55 PM,60.8,37.4,42,30.25,10.0,SSW,15.0,-,N/A,,Mostly Cloudy,210,2012-10-11 17:55:00
1:15 PM,60.8,37.4,42,30.24,10.0,SW,9.2,-,N/A,,Overcast,220,2012-10-11 18:15:00
1:35 PM,62.6,39.2,42,30.23,10.0,SW,10.4,-,N/A,,Mostly Cloudy,220,2012-10-11 18:35:00
1:55 PM,62.6,39.2,42,30.22,10.0,SSW,11.5,17.3,N/A,,Mostly Cloudy,200,2012-10-11 18:55:00
2:15 PM,62.6,39.2,42,30.21,10.0,SSW,10.4,-,N/A,,Partly Cloudy,200,2012-10-11 19:15:00
2:35 PM,60.8,37.4,42,30.21,10.0,South,11.5,-,N/A,,Partly Cloudy,180,2012-10-11 19:35:00
2:55 PM,60.8,37.4,42,30.21,10.0,SSW,10.4,-,N/A,,Mostly Cloudy,200,2012-10-11 19:55:00
3:15 PM,60.8,37.4,42,30.20,10.0,SW,12.7,-,N/A,,Overcast,220,2012-10-11 20:15:00
3:55 PM,62.6,39.2,42,30.19,10.0,South,13.8,-,N/A,,Clear,190,2012-10-11 20:55:00
4:15 PM,62.6,39.2,42,30.19,10.0,South,13.8,-,N/A,,Clear,190,2012-10-11 21:15:00
4:35 PM,62.6,39.2,42,30.18,10.0,South,11.5,17.3,N/A,,Clear,190,2012-10-11 21:35:00
5:15 PM,60.8,39.2,45,30.19,10.0,SW,9.2,-,N/A,,Mostly Cloudy,220,2012-10-11 22:15:00
5:35 PM,59.0,39.2,48,30.18,10.0,South,6.9,-,N/A,,Mostly Cloudy,190,2012-10-11 22:35:00
5:55 PM,59.0,39.2,48,30.19,10.0,SSW,8.1,-,N/A,,Overcast,210,2012-10-11 22:55:00
6:35 PM,55.4,41.0,58,30.18,7.0,South,5.8,-,N/A,,Mostly Cloudy,170,2012-10-11 23:35:00
6:55 PM,53.6,41.0,62,30.19,10.0,South,3.5,-,N/A,,Mostly Cloudy,190,2012-10-11 23:55:00
7:15 PM,53.6,42.8,67,30.18,10.0,South,5.8,-,N/A,,Scattered Clouds,170,2012-10-12 00:15:00
7:35 PM,53.6,39.2,58,30.18,10.0,South,4.6,-,N/A,,Scattered Clouds,180,2012-10-12 00:35:00
8:15 PM,53.6,42.8,67,30.19,10.0,South,3.5,-,N/A,,Overcast,190,2012-10-12 01:15:00
8:35 PM,55.4,42.8,63,30.20,10.0,SSW,5.8,-,N/A,,Overcast,210,2012-10-12 01:35:00
8:55 PM,55.4,42.8,63,30.20,10.0,SSW,5.8,-,N/A,,Overcast,200,2012-10-12 01:55:00
9:15 PM,55.4,42.8,63,30.21,10.0,SSW,4.6,-,N/A,,Overcast,210,2012-10-12 02:15:00
9:35 PM,55.4,44.6,67,30.20,10.0,South,3.5,-,N/A,,Overcast,170,2012-10-12 02:35:00
9:55 PM,55.4,42.8,63,30.19,10.0,SSE,3.5,-,N/A,,Overcast,150,2012-10-12 02:55:00
10:35 PM,53.6,44.6,72,30.20,10.0,Calm,Calm,-,N/A,,Overcast,0,2012-10-12 03:35:00
10:55 PM,53.6,44.6,72,30.18,10.0,Calm,Calm,-,N/A,,Overcast,0,2012-10-12 03:55:00
11:15 PM,53.6,44.6,72,30.19,10.0,Calm,Calm,-,N/A,,Overcast,0,2012-10-12 04:15:00
11:35 PM,53.6,44.6,72,30.21,10.0,Calm,Calm,-,N/A,,Overcast,0,2012-10-12 04:35:00
11:55 PM,53.6,46.4,77,30.21,10.0,Calm,Calm,-,N/A,,Overcast,0,2012-10-12 04:55:00